Other Public Products
Issued by NWS Charleston, SC

Current Version | Previous Version | Graphics & Text | Print | Product List | Glossary On
Versions: 1 2 3 4 5 6 7 8 9 10 11 12 13 14 15 16 17 18 19 20 21 22 23 24 25 26 27 28 29 30 31 32 33 34 35 36 37 38 39 40 41 42 43 44 45 46 47 48 49 50
737
FPUS82 KCHS 211127
OPUCHS

TEST...KCHS/KSAV Gateway Observations...TEST
National Weather Service Charleston SC
700 AM EDT FRI JUL 21 2017

NOTE: "fair" indicates few or no clouds below 12,000 feet with no
significant weather and/or obstructions to visibility.

SCZ050-WAZ558-NCZ071-TXZ119-213-PAZ071-DCZ001-FLZ074-172-MI076-
NYZ176-178-MAZ016-IL014-TNZ027-NJZ106-GAZ044-MD014-211200-

...Gateway Observations for Charleston International...

CITY           SKY/WX    TMP DP  RH WIND       PRES   REMARKS
Chas Airport   PTCLDY    72  70  93 S5        30.03R
Seattle        PTCLDY    57  53  86 CALM      30.14S
Charlotte      PTCLDY    74  71  91 CALM      30.03R
Dallas DFW     CLEAR     82  73  74 S8        29.99R
Dallas Love    CLEAR     83  72  69 S5        30.00R
Philladelphia  MOSUNNY   80  68  66 N7        29.91R
Wash National  MOCLDY    84  70  62 N6        29.95R
Baltimore      MOSUNNY   79  71  76 NW3       29.93R
Miami          PTCLDY    82  76  81 CALM      30.03R
Detroit        MOCLDY    73  70  90 N7        29.98R
Newark         PTSUNNY   78  68  71 W3        29.90R
Laguardia      MOSUNNY   78  70  76 NW8       29.89R
J F K          MOSUNNY   81  70  69 NW7       29.90R
Boston Logan   MOSUNNY   74  61  63 W7        29.85R
Ft. Lauderdale NOT AVBL
Chicago O`Hare CLOUDY    74  68  81 N3        29.99S
Chicago Midway CLOUDY    76  71  85 N5        29.99S
Houston Bush   PTCLDY    77  74  90 CALM      30.02R
Houston Hobby  PTCLDY    80  74  81 NE3       30.01R
Nashville      CLOUDY    75  72  90 CALM      30.05R
Atlanta        PTCLDY    77  73  87 N5        30.04R

$$

GAZ044-118-TXZ119-213-NCZ071-DCZ001-MDZ014-506-PAZ021-071-NJZ106-
NYZ176-178-MAZ106-OHZ011-021-055-MIZ076-KYZ091-ILZ014-INZ047-
MNZ060-ONZ431-211200-

...Gateway Observations for Savannah International...

CITY           SKY/WX    TMP DP  RH WIND       PRES   REMARKS
Savannah Arpt  PTCLDY    74  70  87 S6        30.01F
Atlanta        PTCLDY    77  73  87 N5        30.04R
Charlotte      PTCLDY    74  71  91 CALM      30.03R
Dallas DFW     CLEAR     82  73  74 S8        29.99R
Houston Bush   PTCLDY    77  74  90 CALM      30.02R
Wash National  MOCLDY    84  70  62 N6        29.95R
Wash Dulles    MOCLDY    78  69  73 NW6       29.96R
Baltimore      MOSUNNY   79  71  76 NW3       29.93R
Philadelphia   MOSUNNY   80  68  66 N7        29.91R
Newark         PTSUNNY   78  68  71 W3        29.90R
Laguardia      MOSUNNY   78  70  76 NW8       29.89R
J F K          MOSUNNY   81  70  69 NW7       29.90R
Boston         MOSUNNY   74  61  63 W7        29.85R
Pittsburg      MOCLDY    72  71  97 CALM      30.00R FOG
Akron          MOCLDY    72  68  87 CALM      29.98F
Cleveland      MOCLDY    74  70  87 CALM      29.98S
Cincinnati     CLOUDY    77  75  93 SW5       30.01R
Columbus       MOCLDY    75  74  96 S6        29.97S
Detroit        MOCLDY    73  70  90 N7        29.98R
Chicago O`Hare CLOUDY    74  68  81 N3        29.99S
Minneapolis    PTCLDY    71  67  87 SE12      29.89F
Indianapolis   CLOUDY    73  69  87 N10       30.02F
Toronto Canada PTCLDY    70  66  88 VRB2      29.92R

$$




USA.gov is the U.S. government's official web portal to all federal, state and local government web resources and services.